Location: St. Louis
(38.6270°N, 90.1994°W)
Time: 04:04:01
(UTC-05:00)

ISS - Pass Details

Date: 06 April 2014
Orbit: 402 x 406 km, 51.6° (Epoch: 29 August)

Event Time Altitude Azimuth Distance (km) Brightness Sun altitude
Rises 22:03:35 0° 282° (WNW) 2,400 1.6 -28.4°
Reaches altitude 10° 22:06:31 10° 310° (NW) 1,537 0.5 -28.9°
Maximum altitude 22:08:24 14° 343° (NNW) 1,320 -0.2 -29.2°
Enters shadow 22:08:30 14° 345° (NNW) 1,321 -0.2 -29.2°
